Regional Weather Roundup
Issued by NWS Midland/Odessa, TX

Home | Current Version | Previous Version | Text Only | Print | Product List | Glossary On
Versions: 1 2 3 4 5 6 7 8 9 10 11 12 13 14 15 16 17 18 19 20 21 22 23 24 25 26 27 28 29 30 31 32 33 34 35 36 37 38 39 40 41 42 43 44 45 46 47 48 49 50
000
ASUS44 KMAF 250610
RWRMAF
MIDLAND AREA WEATHER ROUNDUP
NATIONAL WEATHER SERVICE MIDLAND TX
100 AM CDT SAT APR 25 2015

...IN SOUTHWEST TEXAS AND SOUTHEAST NEW MEXICO...

CITY           SKY/WX    TMP DP  RH WIND       PRES   REMARKS
ALPINE         FAIR      49  33  53 SW7       30.03R
ANDREWS        FAIR      64  27  24 W14G22    29.86R
ARTESIA        CLEAR     59  28  31 W14       29.88S
BIG SPRING     FAIR      61  27  27 W8        29.84S
CARLSBAD       CLEAR     61  27  27 SW3       29.87R
DRYDEN           N/A     69  66  90 NE3       29.84R
FORT STOCKTON  FAIR      59  27  29 W9        29.90R
GUAD PASS      CLEAR     55  26  32 W30       29.96R
HOBBS          FAIR      55  27  33 W9        29.89R
MARFA          FAIR      54  28  37 NW6       30.01R
MIDLAND AIRPK  FAIR      66  27  22 W13       29.85R
MIDLAND INTL   FAIR      65  29  25 W15       29.84R
ODESSA         FAIR      64  25  22 W10       29.86R
PECOS          FAIR      61  26  26 W10       29.88S
PRESIDIO       FAIR      63  25  24 N3        29.91S
SEMINOLE       FAIR      56  28  33 W9        29.86S
SNYDER         FAIR      55  38  53 SW9       29.80R
WINK           FAIR      57  22  25 W6        29.86R
$$
...OTHER STATIONS IN TEXAS...

CITY           SKY/WX    TMP DP  RH WIND       PRES   REMARKS
ABILENE        FAIR      64  53  67 SW9       29.76S
AMARILLO       FAIR      61  26  26 W22G36    29.71R
AUSTIN         FAIR      74  73  97 SW7       29.74R
BROWNSVILLE    CLOUDY    75  69  81 S5        29.80F
CORPUS CHRISTI LGT RAIN  79  75  87 E12G24    29.73F FOG
DALLAS FTW     MOCLDY    60  60 100 S6        29.68S
DEL RIO        CLOUDY    74  72  93 CALM      29.78R FOG
EL PASO        PTCLDY    65  28  24 W6        29.96R
HOUSTON INT    CLOUDY    78  73  84 S9        29.76F
LUBBOCK        FAIR      55  31  39 W12       29.79S
SAN ANGELO     FAIR      58  53  84 S8        29.81R
SAN ANTONIO    MOCLDY    74  68  81 S9        29.78R
WACO           FAIR      66  63  90 CALM      29.71S
WICHITA FALLS  NOT AVBL
$$
...OTHER LOCATIONS IN NEW MEXICO...

CITY           SKY/WX    TMP DP  RH WIND       PRES   REMARKS
ALAMAGORDO     CLEAR     57  27  30 S3        29.96F
ALBUQUERQUE    PTCLDY    53  34  48 W10       29.97R
CANNON AFB     CLEAR     53  31  43 W13       29.83R
CLOVIS         CLEAR     54  30  40 W14       29.82R
HOLLOMAN AFB   CLEAR     56  30  36 SW6       29.94S
ROSWELL        CLEAR     61  31  32 W12       29.86S
RUIDOSO        CLEAR     48  25  40 W14G26    30.01S
SANTA FE       PTCLDY    40  27  59 NW5       29.96S WCI  37
TRUTH OR CONSE CLEAR     53  28  38 NE5       29.97S
TUCUMCARI      CLEAR     57  27  31 W15       29.78R
$$



USA.gov is the U.S. government's official web portal to all federal, state and local government web resources and services.